Time,TemperatureF,DewpointF,PressureIn,WindDirection,WindDirectionDegrees,WindSpeedMPH,WindSpeedGustMPH,Humidity,HourlyPrecipIn,Conditions,Clouds,dailyrainin,SoftwareType,DateUTC
2013-04-10 00:03:00,78.0,61.0,29.59,South,171,1.0,-999.0,55,-99.99,,,-99.99,,2013-04-10 00:03:00,
2013-04-10 00:12:00,78.0,61.0,29.59,South,171,1.0,-999.0,55,-99.99,,,-99.99,,2013-04-10 00:12:00,
2013-04-10 00:22:00,78.0,61.0,29.59,South,182,0.0,-999.0,56,-99.99,,,-99.99,,2013-04-10 00:22:00,
2013-04-10 00:32:00,77.0,61.0,29.59,South,184,0.0,-999.0,57,-99.99,,,-99.99,,2013-04-10 00:32:00,
2013-04-10 00:42:00,77.0,61.0,29.59,South,184,0.0,-999.0,57,-99.99,,,-99.99,,2013-04-10 00:42:00,
2013-04-10 00:52:00,71.0,63.0,29.61,South,172,3.0,-999.0,76,-99.99,,,-99.99,,2013-04-10 00:52:00,
2013-04-10 01:02:00,70.0,64.0,29.61,SSE,161,3.0,-999.0,80,-99.99,,,-99.99,,2013-04-10 01:02:00,
2013-04-10 01:12:00,69.0,63.0,29.62,SE,133,2.0,-999.0,81,-99.99,,,-99.99,,2013-04-10 01:12:00,
2013-04-10 01:23:00,69.0,63.0,29.62,SE,133,2.0,-999.0,81,-99.99,,,-99.99,,2013-04-10 01:23:00,
2013-04-10 01:32:00,69.0,63.0,29.62,SSE,150,1.0,-999.0,80,-99.99,,,-99.99,,2013-04-10 01:32:00,
2013-04-10 01:42:00,69.0,63.0,29.62,SSE,150,1.0,-999.0,80,-99.99,,,-99.99,,2013-04-10 01:42:00,
2013-04-10 01:53:00,71.0,62.0,29.61,South,178,1.0,-999.0,74,-99.99,,,-99.99,,2013-04-10 01:53:00,
2013-04-10 02:02:00,71.0,62.0,29.61,South,176,1.0,-999.0,73,-99.99,,,-99.99,,2013-04-10 02:02:00,
2013-04-10 02:12:00,71.0,62.0,29.61,South,176,1.0,-999.0,73,-99.99,,,-99.99,,2013-04-10 02:12:00,
2013-04-10 02:22:00,71.0,62.0,29.61,North,-999,-999.0,-999.0,72,-99.99,,,-99.99,,2013-04-10 02:22:00,
2013-04-10 03:22:00,72.0,60.0,29.63,SSW,192,0.0,-999.0,67,-99.99,,,-99.99,,2013-04-10 03:22:00,
2013-04-10 03:32:00,70.0,58.0,29.62,SSW,212,2.0,-999.0,66,-99.99,,,-99.99,,2013-04-10 03:32:00,
2013-04-10 03:43:00,70.0,58.0,29.62,SSW,212,2.0,-999.0,66,-99.99,,,-99.99,,2013-04-10 03:43:00,
2013-04-10 03:53:00,58.0,49.0,29.67,WSW,258,8.0,-999.0,71,-99.99,,,-99.99,,2013-04-10 03:53:00,
2013-04-10 04:03:00,55.0,47.0,29.67,West,271,8.0,-999.0,74,-99.99,,,-99.99,,2013-04-10 04:03:00,
2013-04-10 04:13:00,55.0,47.0,29.67,West,271,8.0,-999.0,74,-99.99,,,-99.99,,2013-04-10 04:13:00,
2013-04-10 04:23:00,53.0,46.0,29.70,WNW,285,12.0,-999.0,77,-99.99,,,-99.99,,2013-04-10 04:23:00,
2013-04-10 04:33:00,51.0,44.0,29.70,WNW,291,13.0,-999.0,77,-99.99,,,-99.99,,2013-04-10 04:33:00,
2013-04-10 04:42:00,51.0,44.0,29.70,WNW,291,13.0,-999.0,77,-99.99,,,-99.99,,2013-04-10 04:42:00,
2013-04-10 04:53:00,48.0,41.0,29.72,West,270,14.0,-999.0,78,-99.99,,,-99.99,,2013-04-10 04:53:00,
2013-04-10 05:02:00,47.0,41.0,29.72,West,275,13.0,-999.0,79,-99.99,,,-99.99,,2013-04-10 05:02:00,
2013-04-10 05:13:00,45.0,40.0,29.74,NW,304,11.0,-999.0,81,-99.99,,,-99.99,,2013-04-10 05:13:00,
2013-04-10 05:23:00,45.0,40.0,29.74,NW,304,11.0,-999.0,81,-99.99,,,-99.99,,2013-04-10 05:23:00,
2013-04-10 05:32:00,45.0,40.0,29.74,NNW,332,8.0,-999.0,81,-99.99,,,-99.99,,2013-04-10 05:32:00,
2013-04-10 05:42:00,45.0,40.0,29.74,NNW,332,8.0,-999.0,81,-99.99,,,-99.99,,2013-04-10 05:42:00,
2013-04-10 05:53:00,44.0,38.0,29.71,WNW,284,7.0,-999.0,80,-99.99,,,-99.99,,2013-04-10 05:53:00,
2013-04-10 06:03:00,43.0,38.0,29.71,WNW,287,8.0,-999.0,81,-99.99,,,-99.99,,2013-04-10 06:03:00,
2013-04-10 06:12:00,43.0,38.0,29.73,NW,318,7.0,-999.0,81,-99.99,,,-99.99,,2013-04-10 06:12:00,
2013-04-10 06:22:00,43.0,38.0,29.73,NW,318,7.0,-999.0,81,-99.99,,,-99.99,,2013-04-10 06:22:00,
2013-04-10 06:32:00,43.0,38.0,29.73,WNW,298,7.0,-999.0,81,-99.99,,,-99.99,,2013-04-10 06:32:00,
2013-04-10 06:42:00,43.0,38.0,29.73,WNW,298,7.0,-999.0,81,-99.99,,,-99.99,,2013-04-10 06:42:00,
2013-04-10 06:52:00,43.0,38.0,29.76,West,281,6.0,-999.0,82,-99.99,,,-99.99,,2013-04-10 06:52:00,
2013-04-10 07:02:00,43.0,38.0,29.76,WNW,298,6.0,-999.0,81,-99.99,,,-99.99,,2013-04-10 07:02:00,
2013-04-10 07:12:00,43.0,38.0,29.76,WNW,298,6.0,-999.0,81,-99.99,,,-99.99,,2013-04-10 07:12:00,
2013-04-10 07:22:00,43.0,38.0,29.75,NW,318,2.0,-999.0,82,-99.99,,,-99.99,,2013-04-10 07:22:00,
2013-04-10 07:32:00,43.0,38.0,29.75,West,280,7.0,-999.0,83,-99.99,,,-99.99,,2013-04-10 07:32:00,
2013-04-10 07:42:00,43.0,38.0,29.75,West,280,7.0,-999.0,83,-99.99,,,-99.99,,2013-04-10 07:42:00,
2013-04-10 07:52:00,42.0,38.0,29.79,WNW,282,7.0,-999.0,85,-99.99,,,-99.99,,2013-04-10 07:52:00,
2013-04-10 08:02:00,42.0,38.0,29.79,WNW,299,7.0,-999.0,86,-99.99,,,-99.99,,2013-04-10 08:02:00,
2013-04-10 08:12:00,42.0,38.0,29.78,NNW,329,6.0,-999.0,86,-99.99,,,-99.99,,2013-04-10 08:12:00,
2013-04-10 08:22:00,42.0,38.0,29.78,NNW,329,6.0,-999.0,86,-99.99,,,-99.99,,2013-04-10 08:22:00,
2013-04-10 08:32:00,42.0,38.0,29.78,NW,305,4.0,-999.0,85,-99.99,,,-99.99,,2013-04-10 08:32:00,
2013-04-10 08:42:00,42.0,38.0,29.78,NW,305,4.0,-999.0,85,-99.99,,,-99.99,,2013-04-10 08:42:00,
2013-04-10 08:52:00,42.0,38.0,29.79,West,274,7.0,-999.0,85,-99.99,,,-99.99,,2013-04-10 08:52:00,
2013-04-10 09:02:00,42.0,38.0,29.79,West,270,6.0,-999.0,85,-99.99,,,-99.99,,2013-04-10 09:02:00,
2013-04-10 09:12:00,41.0,38.0,29.80,West,272,9.0,-999.0,89,-99.99,,,-99.99,,2013-04-10 09:12:00,
2013-04-10 09:22:00,41.0,38.0,29.80,West,272,9.0,-999.0,89,-99.99,,,-99.99,,2013-04-10 09:22:00,
2013-04-10 09:32:00,40.0,38.0,29.80,NW,305,9.0,-999.0,92,-99.99,,,-99.99,,2013-04-10 09:32:00,
2013-04-10 09:43:00,39.0,38.0,29.78,West,271,7.0,-999.0,95,-99.99,,,-99.99,,2013-04-10 09:43:00,
2013-04-10 09:53:00,39.0,38.0,29.78,West,271,7.0,-999.0,95,-99.99,,,-99.99,,2013-04-10 09:53:00,
2013-04-10 10:03:00,39.0,38.0,29.78,NW,316,9.0,-999.0,96,-99.99,,,-99.99,,2013-04-10 10:03:00,
2013-04-10 10:12:00,38.0,37.0,29.77,NNW,339,7.0,-999.0,96,-99.99,,,-99.99,,2013-04-10 10:12:00,
2013-04-10 10:23:00,38.0,37.0,29.77,NNW,339,7.0,-999.0,96,-99.99,,,-99.99,,2013-04-10 10:23:00,
2013-04-10 10:33:00,38.0,37.0,29.77,WSW,244,6.0,-999.0,96,-99.99,,,-99.99,,2013-04-10 10:33:00,
2013-04-10 10:42:00,38.0,37.0,29.77,WSW,244,6.0,-999.0,96,-99.99,,,-99.99,,2013-04-10 10:42:00,
2013-04-10 10:52:00,38.0,37.0,29.76,NNW,330,6.0,-999.0,97,-99.99,,,-99.99,,2013-04-10 10:52:00,
2013-04-10 11:02:00,38.0,37.0,29.76,NW,315,2.0,-999.0,97,-99.99,,,-99.99,,2013-04-10 11:02:00,
2013-04-10 11:12:00,38.0,37.0,29.76,NW,315,2.0,-999.0,97,-99.99,,,-99.99,,2013-04-10 11:12:00,
2013-04-10 11:22:00,38.0,37.0,29.79,West,281,5.0,-999.0,97,-99.99,,,-99.99,,2013-04-10 11:22:00,
2013-04-10 11:32:00,39.0,38.0,29.79,West,261,4.0,-999.0,96,-99.99,,,-99.99,,2013-04-10 11:32:00,
2013-04-10 11:42:00,39.0,38.0,29.79,West,261,4.0,-999.0,96,-99.99,,,-99.99,,2013-04-10 11:42:00,
2013-04-10 11:53:00,39.0,38.0,29.80,North,-999,-999.0,-999.0,96,-99.99,,,-99.99,,2013-04-10 11:53:00,
2013-04-10 12:02:00,39.0,38.0,29.80,NW,316,2.0,-999.0,96,-99.99,,,-99.99,,2013-04-10 12:02:00,
2013-04-10 12:12:00,39.0,38.0,29.80,NW,316,2.0,-999.0,96,-99.99,,,-99.99,,2013-04-10 12:12:00,
2013-04-10 12:22:00,39.0,38.0,29.79,West,260,5.0,-999.0,96,-99.99,,,-99.99,,2013-04-10 12:22:00,
2013-04-10 12:33:00,39.0,37.0,29.79,NW,309,6.0,-999.0,93,-99.99,,,-99.99,,2013-04-10 12:33:00,
2013-04-10 12:42:00,39.0,37.0,29.79,NW,309,6.0,-999.0,93,-99.99,,,-99.99,,2013-04-10 12:42:00,
2013-04-10 12:52:00,38.0,36.0,29.85,NW,311,9.0,-999.0,91,-99.99,,,-99.99,,2013-04-10 12:52:00,
2013-04-10 13:02:00,38.0,36.0,29.85,WNW,284,6.0,-999.0,93,-99.99,,,-99.99,,2013-04-10 13:02:00,
2013-04-10 13:12:00,38.0,36.0,29.85,WNW,284,6.0,-999.0,93,-99.99,,,-99.99,,2013-04-10 13:12:00,
2013-04-10 13:23:00,37.0,35.0,29.81,NW,312,1.0,-999.0,94,-99.99,,,-99.99,,2013-04-10 13:23:00,
2013-04-10 13:33:00,37.0,-99.9,29.81,WNW,289,4.0,-999.0,-999,-99.99,,,-99.99,,2013-04-10 13:33:00,
2013-04-10 13:43:00,37.0,-99.9,29.81,WNW,289,4.0,-999.0,-999,-99.99,,,-99.99,,2013-04-10 13:43:00,
2013-04-10 13:53:00,37.0,35.0,29.86,WNW,298,4.0,-999.0,94,-99.99,,,-99.99,,2013-04-10 13:53:00,
2013-04-10 14:02:00,37.0,35.0,29.86,WNW,288,5.0,-999.0,94,-99.99,,,-99.99,,2013-04-10 14:02:00,
2013-04-10 14:12:00,37.0,35.0,29.83,West,278,5.0,-999.0,94,-99.99,,,-99.99,,2013-04-10 14:12:00,
2013-04-10 14:22:00,37.0,35.0,29.83,West,278,5.0,-999.0,94,-99.99,,,-99.99,,2013-04-10 14:22:00,
2013-04-10 14:32:00,37.0,35.0,29.83,NW,318,5.0,-999.0,94,-99.99,,,-99.99,,2013-04-10 14:32:00,
2013-04-10 14:42:00,36.0,35.0,29.84,WNW,284,6.0,-999.0,95,-99.99,,,-99.99,,2013-04-10 14:42:00,
2013-04-10 14:52:00,36.0,35.0,29.84,WNW,284,6.0,-999.0,95,-99.99,,,-99.99,,2013-04-10 14:52:00,
2013-04-10 15:02:00,36.0,34.0,29.84,NW,320,6.0,-999.0,94,-99.99,,,-99.99,,2013-04-10 15:02:00,
2013-04-10 15:12:00,36.0,34.0,29.83,NW,305,8.0,-999.0,93,-99.99,,,-99.99,,2013-04-10 15:12:00,
2013-04-10 15:22:00,36.0,34.0,29.83,NW,305,8.0,-999.0,93,-99.99,,,-99.99,,2013-04-10 15:22:00,
2013-04-10 15:32:00,36.0,34.0,29.83,WNW,291,7.0,-999.0,93,-99.99,,,-99.99,,2013-04-10 15:32:00,
2013-04-10 15:42:00,36.0,34.0,29.83,WNW,291,7.0,-999.0,93,-99.99,,,-99.99,,2013-04-10 15:42:00,
2013-04-10 15:52:00,36.0,33.0,29.82,WNW,289,8.0,-999.0,90,-99.99,,,-99.99,,2013-04-10 15:52:00,
2013-04-10 16:03:00,36.0,33.0,29.82,NW,319,5.0,-999.0,90,-99.99,,,-99.99,,2013-04-10 16:03:00,
2013-04-10 16:13:00,36.0,33.0,29.82,NW,319,5.0,-999.0,90,-99.99,,,-99.99,,2013-04-10 16:13:00,
2013-04-10 16:23:00,37.0,34.0,29.83,West,278,4.0,-999.0,88,-99.99,,,-99.99,,2013-04-10 16:23:00,
2013-04-10 16:32:00,37.0,34.0,29.83,WNW,284,5.0,-999.0,87,-99.99,,,-99.99,,2013-04-10 16:32:00,
2013-04-10 16:43:00,37.0,34.0,29.83,WNW,284,5.0,-999.0,87,-99.99,,,-99.99,,2013-04-10 16:43:00,
2013-04-10 16:53:00,37.0,33.0,29.86,NW,311,4.0,-999.0,86,-99.99,,,-99.99,,2013-04-10 16:53:00,
2013-04-10 17:02:00,37.0,33.0,29.86,West,270,6.0,-999.0,86,-99.99,,,-99.99,,2013-04-10 17:02:00,
2013-04-10 17:12:00,37.0,34.0,29.84,WNW,294,4.0,-999.0,87,-99.99,,,-99.99,,2013-04-10 17:12:00,
2013-04-10 17:22:00,37.0,34.0,29.84,WNW,294,4.0,-999.0,87,-99.99,,,-99.99,,2013-04-10 17:22:00,
2013-04-10 17:33:00,37.0,34.0,29.84,West,271,5.0,-999.0,89,-99.99,,,-99.99,,2013-04-10 17:33:00,
2013-04-10 17:42:00,37.0,34.0,29.84,West,271,5.0,-999.0,89,-99.99,,,-99.99,,2013-04-10 17:42:00,
2013-04-10 17:52:00,36.0,34.0,29.87,West,270,6.0,-999.0,91,-99.99,,,-99.99,,2013-04-10 17:52:00,
2013-04-10 18:02:00,36.0,34.0,29.87,WNW,282,5.0,-999.0,92,-99.99,,,-99.99,,2013-04-10 18:02:00,
2013-04-10 18:12:00,36.0,34.0,29.87,WNW,282,5.0,-999.0,92,-99.99,,,-99.99,,2013-04-10 18:12:00,
2013-04-10 18:23:00,36.0,34.0,29.85,West,272,6.0,-999.0,92,-99.99,,,-99.99,,2013-04-10 18:23:00,
2013-04-10 18:33:00,36.0,34.0,29.85,WNW,284,7.0,-999.0,92,-99.99,,,-99.99,,2013-04-10 18:33:00,
2013-04-10 18:42:00,36.0,34.0,29.85,WNW,284,7.0,-999.0,92,-99.99,,,-99.99,,2013-04-10 18:42:00,
2013-04-10 18:52:00,36.0,34.0,29.82,North,-999,-999.0,-999.0,93,-99.99,,,-99.99,,2013-04-10 18:52:00,
2013-04-10 19:03:00,37.0,35.0,29.82,WNW,292,4.0,-999.0,93,-99.99,,,-99.99,,2013-04-10 19:03:00,
2013-04-10 19:12:00,37.0,35.0,29.74,West,281,5.0,-999.0,91,-99.99,,,-99.99,,2013-04-10 19:12:00,
2013-04-10 19:22:00,37.0,35.0,29.74,West,281,5.0,-999.0,91,-99.99,,,-99.99,,2013-04-10 19:22:00,
2013-04-10 19:33:00,37.0,35.0,29.74,West,271,7.0,-999.0,92,-99.99,,,-99.99,,2013-04-10 19:33:00,
2013-04-10 19:42:00,36.0,34.0,29.83,West,270,5.0,-999.0,91,-99.99,,,-99.99,,2013-04-10 19:42:00,
2013-04-10 19:53:00,36.0,34.0,29.83,West,270,5.0,-999.0,91,-99.99,,,-99.99,,2013-04-10 19:53:00,
2013-04-10 20:02:00,36.0,33.0,29.83,West,281,5.0,-999.0,90,-99.99,,,-99.99,,2013-04-10 20:02:00,
2013-04-10 20:12:00,36.0,34.0,29.82,West,274,3.0,8.0,92,-99.99,,,-99.99,,2013-04-10 20:12:00,
2013-04-10 20:23:00,36.0,34.0,29.82,West,274,3.0,8.0,92,-99.99,,,-99.99,,2013-04-10 20:23:00,
2013-04-10 20:33:00,36.0,34.0,29.82,NNW,346,6.0,16.0,93,-99.99,,,-99.99,,2013-04-10 20:33:00,
2013-04-10 20:42:00,36.0,34.0,29.85,West,275,4.0,19.0,94,-99.99,,,-99.99,,2013-04-10 20:42:00,
2013-04-10 20:52:00,36.0,34.0,29.85,West,275,4.0,19.0,94,-99.99,,,-99.99,,2013-04-10 20:52:00,
2013-04-10 21:02:00,35.0,34.0,29.85,West,278,5.0,17.0,95,-99.99,,,-99.99,,2013-04-10 21:02:00,
2013-04-10 21:12:00,36.0,35.0,29.79,NW,325,6.0,18.0,95,0.05,,,-99.99,,2013-04-10 21:12:00,
2013-04-10 21:22:00,36.0,35.0,29.79,NW,325,6.0,18.0,95,0.05,,,-99.99,,2013-04-10 21:22:00,
2013-04-10 21:32:00,36.0,35.0,29.79,NW,315,8.0,17.0,95,0.04,,,-99.99,,2013-04-10 21:32:00,
2013-04-10 21:42:00,36.0,35.0,29.79,NW,315,8.0,17.0,95,0.04,,,-99.99,,2013-04-10 21:42:00,
2013-04-10 21:53:00,36.0,35.0,29.81,West,277,7.0,14.0,95,0.00,,,-99.99,,2013-04-10 21:53:00,
2013-04-10 22:03:00,36.0,34.0,29.81,WNW,284,6.0,14.0,94,0.00,,,-99.99,,2013-04-10 22:03:00,
2013-04-10 22:12:00,36.0,34.0,29.79,WNW,298,3.0,10.0,93,0.00,,,-99.99,,2013-04-10 22:12:00,
2013-04-10 22:22:00,36.0,34.0,29.79,WNW,298,3.0,10.0,93,0.00,,,-99.99,,2013-04-10 22:22:00,
2013-04-10 22:33:00,37.0,35.0,29.79,West,280,3.0,13.0,92,0.00,,,-99.99,,2013-04-10 22:33:00,
2013-04-10 22:42:00,37.0,35.0,29.79,West,280,3.0,13.0,92,0.00,,,-99.99,,2013-04-10 22:42:00,
2013-04-10 22:53:00,38.0,35.0,29.80,WNW,298,6.0,12.0,88,0.00,,,-99.99,,2013-04-10 22:53:00,
2013-04-10 23:02:00,38.0,34.0,29.80,West,278,9.0,13.0,87,0.00,,,-99.99,,2013-04-10 23:02:00,
2013-04-10 23:12:00,38.0,34.0,29.81,WNW,295,6.0,11.0,85,0.00,,,-99.99,,2013-04-10 23:12:00,
2013-04-10 23:22:00,38.0,34.0,29.81,WNW,295,6.0,11.0,85,0.00,,,-99.99,,2013-04-10 23:22:00,
2013-04-10 23:32:00,38.0,34.0,29.81,West,265,6.0,11.0,84,0.00,,,-99.99,,2013-04-10 23:32:00,
2013-04-10 23:42:00,38.0,34.0,29.81,West,265,6.0,11.0,84,0.00,,,-99.99,,2013-04-10 23:42:00,
2013-04-10 23:53:00,37.0,33.0,29.81,WNW,301,6.0,12.0,84,0.00,,,-99.99,,2013-04-10 23:53:00,